Regional Weather Roundup
Issued by NWS Sioux Falls, SD

Home | Current Version | Previous Version | Text Only | Print | Product List | Glossary On
Versions: 1 2 3 4 5 6 7 8 9 10 11 12 13 14 15 16 17 18 19 20 21 22 23 24 25 26 27 28 29 30 31 32 33 34 35 36 37 38 39 40 41 42 43 44 45 46 47 48 49 50
326
ASUS43 KFSD 101310
RWRFSD

WEATHER ROUNDUP FOR SE SOUTH DAKOTA/SW MINNESOTA/NW IOWA
NATIONAL WEATHER SERVICE SIOUX FALLS SD
700 AM CST WED FEB 10 2016

NOTE: "FAIR" INDICATES FEW OR NO CLOUDS BELOW 12,000 FEET WITH NO
SIGNIFICANT WEATHER AND OR OBSTRUCTIONS TO VISIBILITY.


SDZ038>040-050-052>070-101400-
SOUTHEAST SOUTH DAKOTA

CITY           SKY/WX    TMP DP  RH WIND       PRES   REMARKS
CHAMBERLAIN    CLOUDY    22  20  93 E5        29.89S WCI  16
HURON          CLOUDY    22  19  89 SE12      29.94F WCI  10
MADISON        LGT SNOW  16  16 100 MISG      29.97R
MITCHELL       CLOUDY    24  19  81 SE12      29.97R WCI  13
SIOUX FALLS    LGT SNOW  18  14  84 E10       29.99F FOG     WCI   6
WINNER         FAIR      30  25  81 SW7       29.86S WCI  23
YANKTON        CLOUDY    21  18  86 E12       29.95F WCI   9
$$

MNZ071-072-080-081-089-090-097-098-101400-
SOUTHWEST MINNESOTA

CITY           SKY/WX    TMP DP  RH WIND       PRES   REMARKS
FAIRMONT       CLOUDY     7   0  72 NE3       30.07F
JACKSON        LGT SNOW  10   5  79 E7        30.04F WCI   0
LUVERNE        LGT SNOW  18  12  79 E9        30.01F WCI   6
MARSHALL       LGT SNOW   9   5  84 E8        30.06F FOG     WCI  -3
MONTEVIDEO     LGT SNOW   7   3  85 SE6       30.11S WCI  -3
PIPESTONE      LGT SNOW  16   7  67 SE9       29.97F WCI   4
REDWOOD FALLS  LGT SNOW   7   2  80 E5        30.09F WCI  -2
TRACY          LGT SNOW  10   6  86 E7        30.05S WCI  -1
WINDOM         LGT SNOW   9   3  78 CALM      30.05S
WORTHINGTON    CLOUDY    10   7  85 E9        30.02F WCI  -2
$$

IAZ001>003-012>014-020>022-031-032-NEZ013-014-SDZ071-101400-
NORTHWEST IOWA

CITY           SKY/WX    TMP DP  RH WIND       PRES   REMARKS
CHEROKEE       LGT SNOW  19  17  93 SE5       30.04F WCI  12
DENISON        FLURRIES  21  16  79 SE7       30.02F WCI  13
ESTHERVILLE    LGT SNOW   8   5  87 E6        30.05F FOG     WCI  -2
LE MARS        CLOUDY    21  19  93 SE12G20   30.02S FOG     WCI   9
ORANGE CITY    LGT SNOW  19  18  93 E9        30.00F WCI   9
SHELDON        LGT SNOW  16  14  93 E12       30.00F WCI   3
SIOUX CITY     CLOUDY    23  16  74 SE13      30.00F WCI  11
SPENCER        LGT SNOW  13   8  81 E9        30.04F WCI   1
STORM LAKE     LGT SNOW  18  18 100 SE8       30.03F WCI   7
$$

ABBREVIATIONS USED IN REMARKS
   TC - TEMPERATURE IN CELSIUS
  WCI - WIND CHILL INDEX
   HX - HEAT INDEX
  VSB - VISIBILITY





USA.gov is the U.S. government's official web portal to all federal, state and local government web resources and services.